CW4113 Weather Reports


time (UTC)temp
F
wind
direction
speed
knots
gust
knots
rain 1hr
in
rain 24hr
in
rain mn
in
humidity
%
barometer
mb
20260504120304 52 245 4.3 8.7 0.00 0.00 0.00 49 1013.9
20260504110305 49 212 3.5 7.8 0.00 0.00 0.00 51 1013.8
20260504100305 47 216 4.3 8.7 0.00 0.00 0.00 54 1013.9
20260504081804 48 201 5.2 7.8 0.00 0.00 0.00 53 1014.1
20260504081305 48 206 5.2 10.4 0.00 0.00 0.00 53 1014.1
20260504080805 48 206 5.2 8.7 0.00 0.00 0.00 53 1014.1
20260504080304 48 208 5.2 10.4 0.00 0.00 0.00 54 1014.0
20260504070304 48 215 7.0 10.4 0.00 0.00 0.00 52 1014.1
20260504050304 51 220 7.0 12.2 0.00 0.00 0.00 46 1014.2
20260504045804 51 223 7.8 13.9 0.00 0.00 0.00 47 1014.2
20260504045305 51 213 7.0 12.2 0.00 0.00 0.00 47 1014.1
20260504044804 51 223 7.0 11.3 0.00 0.00 0.00 48 1014.1
20260504044304 50 227 7.0 12.2 0.00 0.00 0.00 48 1014.1
20260504043804 50 221 6.1 11.3 0.00 0.00 0.00 48 1014.1
20260504043304 50 220 6.1 14.8 0.00 0.00 0.00 48 1014.2
20260504041804 51 217 6.1 10.4 0.00 0.00 0.00 47 1014.1
20260504041304 51 220 6.1 12.2 0.00 0.00 0.00 46 1014.0
20260504040817 51 205 6.1 10.4 0.00 0.00 0.00 46 1014.0
20260504040304 51 212 6.1 11.3 0.00 0.00 0.00 46 1014.0
20260504035804 51 213 6.1 11.3 0.00 0.00 0.00 46 1013.9
20260504034804 52 210 6.1 12.2 0.00 0.00 0.00 44 1013.8
20260504033804 52 216 6.1 10.4 0.00 0.00 0.00 45 1013.7
20260504033304 52 216 5.2 10.4 0.00 0.00 0.00 45 1013.6
20260504032803 52 216 6.1 8.7 0.00 0.00 0.00 44 1013.5
20260504032304 52 207 6.1 10.4 0.00 0.00 0.00 44 1013.5
20260504031804 52 212 6.1 10.4 0.00 0.00 0.00 44 1013.5
20260504031304 52 215 6.1 10.4 0.00 0.00 0.00 44 1013.4
20260504030304 52 217 5.2 11.3 0.00 0.00 0.00 44 1013.4
20260504025803 52 215 5.2 11.3 0.00 0.00 0.00 43 1013.3
20260504025305 52 217 6.1 10.4 0.00 0.00 0.00 43 1013.4
20260504024804 53 223 5.2 10.4 0.00 0.00 0.00 43 1013.4
20260504023804 53 214 5.2 10.4 0.00 0.00 0.00 42 1013.4
20260504023304 53 220 4.3 7.0 0.00 0.00 0.00 41 1013.4
20260504022803 53 226 4.3 7.0 0.00 0.00 0.00 42 1013.4
20260504022305 53 222 4.3 7.0 0.00 0.00 0.00 42 1013.5
20260504021804 53 215 5.2 10.4 0.00 0.00 0.00 42 1013.5
20260504021304 53 222 5.2 7.8 0.00 0.00 0.00 42 1013.5
20260504020304 53 218 4.3 7.8 0.00 0.00 0.00 44 1013.6
20260504015804 53 236 4.3 6.1 0.00 0.00 0.00 44 1013.4
20260504015304 52 236 4.3 7.0 0.00 0.00 0.00 45 1013.4
20260504014804 52 232 3.5 6.1 0.00 0.00 0.00 45 1013.4
20260504014305 52 235 3.5 4.3 0.00 0.00 0.00 45 1013.4
20260504013806 52 229 2.6 6.1 0.00 0.00 0.00 45 1013.3
20260504013306 53 243 2.6 6.1 0.00 0.00 0.00 44 1013.3
20260504012805 53 235 3.5 7.0 0.00 0.00 0.00 43 1013.3
20260504012306 54 236 4.3 8.7 0.00 0.00 0.00 42 1013.4
20260504011806 54 237 4.3 7.0 0.00 0.00 0.00 41 1013.3
20260504011306 54 240 3.5 6.1 0.00 0.00 0.00 41 1013.3
20260504010805 54 240 4.3 6.1 0.00 0.00 0.00 40 1013.2
20260504010306 54 238 3.5 8.7 0.00 0.00 0.00 41 1013.2
20260504005806 55 253 4.3 7.0 0.00 0.00 0.00 39 1013.2
20260504004806 55 245 4.3 7.8 0.00 0.00 0.00 38 1013.2
20260504004305 56 240 4.3 8.7 0.00 0.00 0.00 37 1013.2
20260504003806 56 260 5.2 10.4 0.00 0.00 0.00 36 1013.1
20260504003306 56 259 4.3 13.0 0.00 0.00 0.00 36 1013.0
20260504002805 56 254 5.2 7.8 0.00 0.00 0.00 37 1012.9
20260504002306 56 267 4.3 7.8 0.00 0.00 0.00 37 1012.8
20260504001305 56 270 3.5 7.8 0.00 0.00 0.00 36 1012.6
20260503235806 57 263 3.5 7.8 0.00 0.00 0.00 37 1012.5
20260503235306 57 257 4.3 8.7 0.00 0.00 0.00 36 1012.5
20260503234805 57 255 4.3 8.7 0.00 0.00 0.00 36 1012.4
20260503234306 57 260 4.3 11.3 0.00 0.00 0.00 36 1012.4
20260503233305 58 284 5.2 12.2 0.00 0.00 0.00 35 1012.3
20260503232805 58 256 5.2 10.4 0.00 0.00 0.00 35 1012.3
20260503232306 58 259 4.3 11.3 0.00 0.00 0.00 35 1012.3
20260503231806 58 260 2.6 10.4 0.00 0.00 0.00 35 1012.3
20260503231306 58 255 5.2 10.4 0.00 0.00 0.00 34 1012.2
20260503230805 58 253 4.3 10.4 0.00 0.00 0.00 35 1012.2
20260503230306 58 263 6.1 13.0 0.00 0.00 0.00 35 1012.2
20260503225305 59 265 5.2 10.4 0.00 0.00 0.00 35 1012.2
20260503224806 59 244 2.6 12.2 0.00 0.00 0.00 36 1012.1
20260503224305 59 271 5.2 11.3 0.00 0.00 0.00 34 1012.1
20260503223806 59 289 3.5 10.4 0.00 0.00 0.00 36 1012.1
20260503223305 59 259 7.0 11.3 0.00 0.00 0.00 34 1012.1
20260503222805 59 253 4.3 13.0 0.00 0.00 0.00 34 1012.1
20260503221806 59 283 2.6 8.7 0.00 0.00 0.00 35 1012.1
20260503221305 59 282 2.6 7.0 0.00 0.00 0.00 34 1012.1
20260503220805 60 297 5.2 13.0 0.00 0.00 0.00 34 1012.2
20260503220306 60 270 5.2 12.2 0.00 0.00 0.00 33 1012.2
20260503215806 60 274 4.3 10.4 0.00 0.00 0.00 34 1012.2
20260503214806 60 276 3.5 13.0 0.00 0.00 0.00 34 1012.1
20260503213805 60 266 7.8 14.8 0.00 0.00 0.00 33 1012.0
20260503212305 61 280 4.3 8.7 0.00 0.00 0.00 32 1011.9
20260503211806 61 264 6.1 13.9 0.00 0.00 0.00 33 1011.9
20260503211305 60 276 5.2 11.3 0.00 0.00 0.00 33 1011.9
20260503210805 60 308 2.6 10.4 0.00 0.00 0.00 34 1011.9
20260503210305 59 309 2.6 8.7 0.00 0.00 0.00 35 1012.0
20260503205805 59 274 5.2 10.4 0.00 0.00 0.00 33 1012.1
20260503205305 58 288 2.6 6.1 0.00 0.00 0.00 35 1012.1
20260503204806 58 297 2.6 7.8 0.00 0.00 0.00 36 1012.2
20260503204306 59 283 4.3 10.4 0.00 0.00 0.00 32 1012.2
20260503203805 59 290 1.7 8.7 0.00 0.00 0.00 33 1012.1
20260503203305 59 264 3.5 10.4 0.00 0.00 0.00 34 1012.2
20260503202805 60 324 5.2 12.2 0.00 0.00 0.00 32 1012.2
20260503202306 60 272 4.3 13.9 0.00 0.00 0.00 32 1012.3
20260503201305 60 259 7.8 17.4 0.00 0.00 0.00 30 1012.3
20260503200806 60 307 6.1 13.0 0.00 0.00 0.00 32 1012.3
20260503200306 60 277 7.0 11.3 0.00 0.00 0.00 31 1012.3
20260503195805 60 309 5.2 17.4 0.00 0.00 0.00 33 1012.3
20260503195305 60 258 5.2 12.2 0.00 0.00 0.00 36 1012.3
20260503194805 60 283 6.1 14.8 0.00 0.00 0.00 30 1012.5
20260503194305 60 283 7.8 17.4 0.00 0.00 0.00 33 1012.5
20260503193806 59 286 7.0 15.6 0.00 0.00 0.00 31 1012.6
20260503193305 60 302 5.2 13.9 0.00 0.00 0.00 35 1012.8
20260503192306 59 265 2.6 13.0 0.00 0.00 0.00 33 1013.0
20260503191805 59 317 6.1 15.6 0.00 0.00 0.00 33 1013.1
20260503191305 59 318 9.6 19.1 0.00 0.00 0.00 33 1013.2
20260503190805 59 281 4.3 10.4 0.00 0.00 0.00 36 1013.1
20260503185805 58 321 4.3 11.3 0.00 0.00 0.00 32 1013.3
20260503185305 58 318 7.8 17.4 0.00 0.00 0.00 34 1013.3
20260503184805 58 312 8.7 15.6 0.00 0.00 0.00 32 1013.4
20260503184305 57 269 7.8 14.8 0.00 0.00 0.00 36 1013.5
20260503183805 58 264 4.3 14.8 0.00 0.00 0.00 38 1013.4
20260503183306 58 290 8.7 17.4 0.00 0.00 0.00 35 1013.5
20260503181805 58 263 6.1 15.6 0.00 0.00 0.00 36 1013.6
20260503181305 58 270 6.1 14.8 0.00 0.00 0.00 35 1013.7
20260503180805 57 316 5.2 12.2 0.00 0.00 0.00 38 1013.6
20260503180306 57 309 4.3 10.4 0.00 0.00 0.00 34 1013.7
20260503175805 58 311 6.1 11.3 0.00 0.00 0.00 37 1013.6
20260503174805 58 283 6.1 12.2 0.00 0.00 0.00 36 1013.7
20260503174305 57 285 5.2 13.9 0.00 0.00 0.00 39 1013.8
20260503173805 56 262 8.7 14.8 0.00 0.00 0.00 36 1013.8
20260503173305 56 317 8.7 17.4 0.00 0.00 0.00 33 1013.8
20260503172805 56 315 4.3 19.1 0.00 0.00 0.00 37 1013.7
20260503172305 56 306 9.6 19.1 0.00 0.00 0.00 36 1013.8
20260503171805 57 316 4.3 14.8 0.00 0.00 0.00 34 1014.0
20260503171305 56 279 7.8 17.4 0.00 0.00 0.00 36 1014.0
20260503170805 56 309 7.8 15.6 0.00 0.00 0.00 35 1014.0
20260503170305 56 283 10.4 22.6 0.00 0.00 0.00 34 1014.2
20260503150305 50 305 7.0 17.4 0.00 0.00 0.00 42 1014.8
20260503140305 49 292 4.3 12.2 0.00 0.00 0.00 53 1014.9
20260503131305 46 337 5.2 14.8 0.00 0.00 0.00 56 1014.9
20260503130805 46 309 7.8 18.2 0.00 0.00 0.00 55 1014.9
20260503130305 46 324 6.1 17.4 0.00 0.00 0.00 54 1014.8